CW1248 Weather Reports


Display with metric or nautical units.
time (UTC)temp
F
wind
direction
speed
MPH
gust
MPH
rain 1hr
in
rain 24hr
in
rain mn
in
humidity
%
barometer
mb
20200404094531 22 279 0.0 4.0 0.00 0.00 0.00 86 1025.6
20200404093002 22 294 0.0 5.0 0.00 0.00 0.00 86 1025.7
20200404091509 22 297 1.0 5.0 0.00 0.00 0.00 86 1025.6
20200404090200 23 304 0.0 4.0 0.00 0.00 0.00 86 1025.4
20200404083042 23 290 4.0 7.0 0.00 0.00 0.00 86 1025.2
20200404081524 23 283 2.0 6.0 0.00 0.00 0.00 85 1025.2
20200404080219 23 286 5.0 9.0 0.00 0.00 0.00 85 1025.0
20200404074733 24 278 5.0 13.0 0.00 0.00 0.00 86 1025.1
20200404073119 24 303 6.0 10.0 0.00 0.00 0.00 86 1025.0
20200404070034 23 291 2.0 6.0 0.00 0.00 0.00 85 1024.9
20200404064523 24 291 1.0 5.0 0.00 0.00 0.00 84 1024.9
20200404063055 24 279 2.0 6.0 0.00 0.00 0.00 83 1024.8
20200404061601 24 291 2.0 9.0 0.00 0.00 0.00 82 1024.8
20200404060123 25 297 4.0 10.0 0.00 0.00 0.00 82 1024.6
20200404053036 25 288 3.0 7.0 0.00 0.00 0.00 84 1024.5
20200404051511 26 275 3.0 7.0 0.00 0.05 0.00 83 1024.6
20200404050032 26 286 2.0 10.0 0.00 0.05 0.00 82 1024.7
20200404044506 26 299 4.0 8.0 0.00 0.05 0.00 82 1024.8
20200404043005 26 307 5.0 12.0 0.00 0.05 0.00 82 1024.8
20200404040004 27 270 7.0 13.0 0.00 0.05 0.00 82 1024.3
20200404034524 28 269 6.0 12.0 0.00 0.05 0.00 82 1024.4
20200404033142 28 300 5.0 15.0 0.00 0.05 0.00 82 1024.3
20200404031655 28 293 3.0 15.0 0.00 0.05 0.00 82 1024.2
20200404030045 28 315 6.0 15.0 0.00 0.05 0.00 82 1024.2
20200404024531 28 281 8.0 14.0 0.00 0.05 0.00 82 1024.0
20200404023007 28 293 7.0 11.0 0.00 0.05 0.00 83 1024.0
20200404021544 28 277 5.0 15.0 0.00 0.05 0.00 83 1023.7
20200404020005 28 267 4.0 10.0 0.00 0.05 0.00 83 1023.8
20200404014504 27 9 6.0 16.0 0.00 0.05 0.00 83 1023.5
20200404013027 27 295 9.0 16.0 0.00 0.05 0.00 83 1023.5
20200404011545 27 274 5.0 10.0 0.00 0.05 0.00 83 1023.3
20200404010109 27 325 6.0 16.0 0.00 0.05 0.00 83 1023.1
20200404004637 28 282 7.0 13.0 0.00 0.05 0.00 83 1023.0
20200404003247 28 278 10.0 17.0 0.00 0.05 0.00 83 1022.8
20200404001711 28 267 5.0 12.0 0.00 0.05 0.00 83 1022.7
20200404000113 28 282 2.0 11.0 0.00 0.05 0.00 83 1022.5
20200403234652 28 262 9.0 17.0 0.00 0.05 0.00 83 1022.2
20200403233114 28 232 8.0 13.0 0.00 0.05 0.00 83 1022.1
20200403231603 28 262 9.0 19.0 0.00 0.05 0.00 83 1021.9
20200403230047 28 312 6.0 13.0 0.00 0.05 0.00 84 1021.9
20200403224533 28 266 7.0 17.0 0.00 0.05 0.00 84 1021.6
20200403223035 28 250 8.0 14.0 0.00 0.05 0.00 85 1021.6
20200403221606 28 275 9.0 16.0 0.00 0.05 0.00 85 1021.6
20200403220128 28 278 8.0 17.0 0.00 0.05 0.00 85 1021.3
20200403214639 28 290 9.0 16.0 0.00 0.05 0.00 85 1021.1
20200403213007 28 275 7.0 17.0 0.00 0.05 0.00 85 1021.3
20200403211505 28 314 8.0 14.0 0.00 0.05 0.00 86 1021.0
20200403210009 28 226 7.0 14.0 0.00 0.05 0.00 86 1021.3
20200403203320 28 237 8.0 15.0 0.00 0.05 0.00 86 1020.9
20200403201712 27 263 8.0 13.0 0.00 0.05 0.00 86 1020.8
20200403200050 27 260 8.0 14.0 0.00 0.05 0.00 87 1020.9
20200403194622 27 305 7.0 15.0 0.00 0.05 0.00 87 1020.9
20200403193157 27 233 11.0 17.0 0.00 0.05 0.00 87 1020.6
20200403191618 26 234 8.0 16.0 0.00 0.05 0.00 88 1020.7
20200403190116 26 263 9.0 18.0 0.00 0.05 0.00 88 1020.5
20200403184557 26 243 8.0 13.0 0.00 0.05 0.00 88 1020.4
20200403183040 26 240 7.0 13.0 0.00 0.05 0.00 88 1020.4
20200403181519 26 277 10.0 15.0 0.00 0.05 0.00 88 1020.3
20200403174523 25 288 8.0 16.0 0.00 0.05 0.00 88 1020.1
20200403173035 25 215 9.0 14.0 0.00 0.05 0.00 89 1020.1
20200403171524 25 263 8.0 17.0 0.00 0.05 0.00 89 1020.0
20200403164525 26 246 10.0 16.0 0.00 0.05 0.00 88 1020.3
20200403163108 26 279 9.0 15.0 0.00 0.05 0.00 88 1020.2
20200403161552 26 292 8.0 12.0 0.00 0.05 0.00 88 1020.4
20200403154635 26 245 10.0 15.0 0.00 0.05 0.00 88 1020.0
20200403153114 26 230 8.0 15.0 0.00 0.05 0.00 88 1019.7
20200403151720 26 287 5.0 11.0 0.00 0.05 0.00 88 1019.5
20200403150135 25 256 9.0 14.0 0.00 0.05 0.00 88 1019.4
20200403144512 25 277 7.0 16.0 0.00 0.05 0.00 89 1019.2
20200403143027 25 276 7.0 14.0 0.00 0.05 0.00 89 1019.2
20200403141503 25 275 5.0 12.0 0.00 0.05 0.00 90 1018.9
20200403134502 25 328 5.0 13.0 0.00 0.05 0.00 89 1018.6
20200403133145 25 280 6.0 15.0 0.00 0.05 0.00 90 1018.4
20200403133000 25 279 6.0 15.0 0.00 0.05 0.00 90 1018.5
20200403131744 25 235 6.0 13.0 0.00 0.05 0.00 90 1018.5
20200403124527 25 258 5.0 15.0 0.00 0.05 0.00 91 1018.5
20200403123014 26 280 5.0 12.0 0.00 0.05 0.00 92 1017.9
20200403121521 26 273 6.0 11.0 0.00 0.05 0.00 92 1017.7
20200403120012 26 261 5.0 11.0 0.00 0.05 0.00 92 1017.7
20200403114640 27 233 5.0 11.0 0.00 0.05 0.00 92 1017.6
20200403111642 27 254 8.0 15.0 0.00 0.05 0.00 92 1017.5
20200403110220 28 264 5.0 9.0 0.00 0.05 0.00 93 1017.4
20200403104726 28 271 6.0 12.0 0.00 0.05 0.00 93 1017.1
20200403101600 29 258 4.0 13.0 0.00 0.05 0.00 93 1016.8
20200403100047 29 238 4.0 17.0 0.00 0.05 0.00 93 1016.5